#timestamp,LO_Frequency,Hit,StdDev 
1681894815.3,286047000.0,N
1681894835.2,286046999.1,N
1681894855.0,286047001.9,N
1681894855.9,286047001.9,N
1681894875.7,286047001.1,N
1681894895.6,286046999.8,N
1681894915.4,286046999.8,N
1681894935.3,286047000.1,N
1681894955.1,286046998.3,N
1681894956.0,286046998.3,N
1681894975.8,286047000.5,N
1681894995.7,286047000.8,N
1681895015.5,286046998.6,N
1681895035.3,286046999.9,N
1681895055.2,286047001.7,N
1681895075.0,286047000.0,N
1681895075.9,286047000.0,N
1681895095.8,286047000.8,N
1681895115.6,286046999.3,N
1681895135.4,286046998.7,N
1681895155.3,286046998.3,N
1681895175.1,286046998.2,N
1681895195.8,286046999.7,N
1681895215.7,286046999.3,N
1681895235.5,286046999.2,N
1681895255.4,286047001.1,N
1681895275.2,286047002.6,N
1681895295.0,286047000.6,N
1681895295.9,286047000.6,N
1681895315.8,286047000.2,N
1681895335.6,286047002.7,N
1681895355.4,286047002.6,N
1681895375.3,286046999.2,N
1681895395.1,286046999.0,N
1681895415.9,286046998.9,N
1681895435.7,286047000.5,N
1681895455.5,286046998.3,N
1681895475.4,286046999.3,N
1681895495.2,286047000.2,N
1681895515.0,286046996.9,N
1681895515.9,286046996.9,N
1681895535.8,286046998.1,N
1681895555.6,286046998.8,N
1681895575.4,286046999.0,N
1681895595.3,286046997.1,N
1681895615.1,286046996.9,N
1681895635.9,286046999.1,N
1681895655.7,286046997.2,N
1681895675.5,286046996.8,N
1681895695.4,286046996.9,N
1681895715.2,286047000.8,N
1681895735.0,286046995.7,N
1681895735.9,286046995.7,N
1681895755.8,286047001.0,N
1681895775.6,286046995.4,N
1681895795.5,286046996.9,N
1681895815.3,286047000.7,N
1681895835.1,286046998.3,N
1681895855.9,286047002.8,N
1681895875.7,286047002.8,N
1681895895.5,286046998.5,N
1681895915.4,286047002.8,N
1681895935.2,286046998.4,N
1681895955.1,286046998.9,N
1681895956.0,286046998.9,N
1681895975.8,286046998.7,N
1681895995.6,286047000.2,N
1681896015.5,286046999.2,N
1681896065.3,286046998.4,E
1681896075.3,286047000.9,N
1681896095.1,286047002.7,P
1681896096.0,286047002.7,N
1681896115.8,286046999.6,N
1681896135.7,286047000.6,N
1681896155.5,286047000.5,N
1681896175.3,286047002.8,N
1681896195.2,286047004.3,Y
1681896215.0,286047000.0,P
1681896215.9,286047000.0,N
1681896235.8,286046999.9,N
1681896255.6,286047001.1,N
1681896275.4,286047001.8,N
1681896295.3,286046998.7,N
1681896315.1,286046998.2,N
1681896335.8,286046998.4,N
1681896355.7,286046998.2,N
1681896375.5,286046998.0,N
1681896395.3,286046999.4,N
1681896415.2,286047000.9,N
1681896435.0,286047000.0,N
1681896435.9,286047000.0,N
1681896455.8,286046998.4,N
1681896475.6,286047012.3,Y
1681896495.4,286047011.7,P
1681896515.3,286047011.5,N
1681896535.1,286047012.1,N
1681896555.8,286047011.3,N
1681896575.7,286047013.3,N
1681896595.5,286047013.9,N
1681896615.4,286047009.5,N
1681896635.2,286047011.9,N
1681896655.0,286047011.8,N
1681896655.9,286047011.8,Y
1681896705.8,286047001.4,E
1681896715.7,286047002.3,N
1681896735.6,286047001.2,P
1681896755.4,286046998.8,N
1681896775.2,286046998.7,N
1681896795.1,286047000.6,N
1681896796.0,286047000.6,N
1681896815.8,286047000.2,N
1681896835.6,286047000.6,N
1681896855.5,286047000.1,N
1681896875.3,286047000.2,N
1681896895.2,286046999.9,N
1681896915.9,286047000.8,N
1681896935.7,286047000.6,N
1681896955.6,286047000.8,N
1681896975.4,286046999.5,N
1681896995.2,286047000.7,N
1681897015.1,286047000.7,N
1681897016.0,286047000.7,N
1681897035.8,286047000.2,N
1681897055.7,286047000.7,N
1681897075.5,286046998.8,N
1681897095.3,286046998.9,N
1681897115.2,286047001.1,N
1681897135.0,286046998.1,N
1681897135.9,286046998.1,N
1681897155.7,286046998.6,N
1681897175.6,286046998.7,N
1681897195.4,286047000.0,N
1681897215.3,286046998.3,N
1681897235.1,286046999.3,N
1681897236.0,286046999.3,N
1681897255.8,286046999.0,N
1681897275.7,286046999.6,N
1681897295.5,286046998.4,N
1681897315.3,286046999.8,N
1681897335.2,286046999.8,N
1681897355.0,286047002.4,N
1681897355.9,286047002.4,N
1681897375.8,286047002.0,N
1681897395.6,286047000.2,N
1681897415.4,286047001.0,N
1681897435.3,286047002.7,N
1681897455.1,286046999.9,N
1681897456.0,286046999.9,N
1681897475.8,286047000.2,N
1681897495.7,286047000.2,N
1681897515.5,286046999.9,N
1681897535.3,286046999.7,N
1681897555.2,286047002.7,N
1681897575.0,286047000.9,N
1681897575.9,286047000.9,N
1681897595.8,286046999.7,N
1681897615.6,286046999.7,N
1681897635.4,286047000.2,N
1681897655.3,286047000.2,N
1681897675.1,286047002.4,N
1681897695.8,286047002.4,N
1681897715.7,286047000.7,N
1681897735.5,286046998.9,N
1681897755.4,286047001.1,N
1681897775.2,286046998.2,N
1681897795.0,286047001.2,N
1681897795.9,286047001.2,N
1681897815.8,286046998.5,N
1681897835.6,286046998.3,N
1681897855.4,286047001.1,N
1681897875.3,286047000.4,N
1681897895.1,286046998.5,N
1681897915.9,286046999.7,N
1681897935.7,286047004.3,Y
1681897955.5,286047002.1,P
1681897975.4,286047000.4,N
1681897995.2,286047000.6,N
1681898015.0,286047000.8,N
1681898015.9,286047000.8,N
1681898035.8,286047001.1,N
1681898055.6,286046999.3,N
1681898075.5,286047000.9,N
1681898095.3,286046998.6,N
1681898115.1,286046999.3,N
1681898135.9,286047001.0,N
1681898155.7,286047000.0,N
1681898175.5,286047002.4,N
1681898195.4,286047001.7,N
1681898215.2,286047000.4,N
1681898235.1,286047000.7,N
1681898236.0,286047000.7,N
1681898255.8,286047002.2,N
1681898275.6,286047002.5,N
1681898295.5,286046998.6,N
1681898315.3,286046998.1,N
1681898335.1,286047002.7,N
1681898355.9,286046999.7,N
1681898375.7,286047000.0,N
1681898395.5,286047000.9,N
